Location: Spruce Knob
(38.6995°N, 79.5330°W)
Time: 01:31:06
(UTC-05:00)

BlueWalker 3 - Pass Details

Date: 13 December 2022
Orbit: 499 x 517 km, 53.2° (Epoch: 02 February)

Event Time Altitude Azimuth Distance (km) Brightness Sun altitude
Rises 18:57:19 0° 293° (WNW) 2,612 6.4 -22.7°
Reaches altitude 10° 19:00:21 10° 268° (W) 1,717 5.7 -23.3°
Maximum altitude 19:02:27 14° 235° (SW) 1,467 5.1 -23.7°
Drops below altitude 10° 19:04:32 10° 202° (SSW) 1,703 5.0 -24.1°
Sets 19:07:32 0° 177° (S) 2,577 5.6 -24.6°
